Stevenson, Washington, United States (98648)
Lat: 45.70N, Lon: 121.88W
Wx Zone: WAZ023
Local Info
Past Weather Observations for Today

NOTE: This archive is for the closest National Weather Service station to Stevenson. Information may differ from the station used for current weather conditions.

Click here for Long-term Archive

Time Weather Temperature Dewpoint Humidity Pressure Winds Precip Visibility
12:53
Mostly Cloudy
54°F / 12°C 43°F / 6°C 67% 29.71 in
(1006 mb)
SSE 5.8 mph
(SSE 9 kph)
- 10SM
11:53
Overcast
54°F / 12°C 45°F / 7°C 72% 29.74 in
(1007 mb)
Variable 4.6 mph
(Variable 7 kph)
- 10SM
10:53
Overcast
52°F / 11°C 45°F / 7°C 77% 29.74 in
(1007 mb)
SW 4.6 mph
(SW 7 kph)
- 10SM
09:53
Overcast
50°F / 10°C 45°F / 7°C 82% 29.74 in
(1007 mb)
SW 8.1 mph
(SW 13 kph)
0.00 in
(0.00 mm)
10SM
08:53
Overcast
Light Rain
48°F / 9°C 45°F / 7°C 87% 29.74 in
(1007 mb)
SW 6.9 mph
(SW 11 kph)
0.00 in
(0.00 mm)
10SM
07:53
Overcast
48°F / 9°C 45°F / 7°C 87% 29.74 in
(1007 mb)
SW 6.9 mph
(SW 11 kph)
0.03 in
(0.76 mm)
10SM
06:56
Overcast
Light Rain
48°F / 9°C 46°F / 8°C 94% 29.71 in
(1006 mb)
SW 8.1 mph
(SW 13 kph)
0.00 in
(0.00 mm)
3SM
06:53
Overcast
Rain
48°F / 9°C 46°F / 8°C 94% 29.71 in
(1006 mb)
SW 9.2 mph
(SW 15 kph)
0.11 in
(2.79 mm)
2 1/2SM
06:46
Overcast
Light Rain
48°F / 9°C 46°F / 8°C 94% 29.71 in
(1006 mb)
SW 6.9 mph
(SW 11 kph)
0.08 in
(2.03 mm)
4SM
06:38
Overcast
Rain
48°F / 9°C 46°F / 8°C 94% 29.71 in
(1006 mb)
SSW 5.8 mph
(SSW 9 kph)
0.07 in
(1.78 mm)
2 1/2SM
06:25
Overcast
Light Rain
48°F / 9°C 46°F / 8°C 94% 29.71 in
(1006 mb)
Calm 0.01 in
(0.25 mm)
5SM
06:04
Overcast
48°F / 9°C 46°F / 8°C 94% 29.74 in
(1007 mb)
Calm - 9SM
05:53
Overcast
48°F / 9°C 46°F / 8°C 94% 29.74 in
(1007 mb)
Calm - 7SM
05:30
Overcast
48°F / 9°C 46°F / 8°C 94% 29.74 in
(1007 mb)
Calm - 10SM
05:16
Overcast
48°F / 9°C 46°F / 8°C 94% 29.74 in
(1007 mb)
Calm - 10SM
04:53
Overcast
48°F / 9°C 46°F / 8°C 94% 29.74 in
(1007 mb)
Calm 0.01 in
(0.25 mm)
10SM
04:20
Overcast
Light Rain
48°F / 9°C 46°F / 8°C 94% 29.74 in
(1007 mb)
Calm 0.01 in
(0.25 mm)
9SM
04:18
Overcast
Light Rain
48°F / 9°C 46°F / 8°C 94% 29.74 in
(1007 mb)
E 3.5 mph
(E 6 kph)
0.01 in
(0.25 mm)
9SM
04:09
Overcast
Light Rain
48°F / 9°C 46°F / 8°C 94% 29.74 in
(1007 mb)
Calm 0.01 in
(0.25 mm)
7SM
03:53
Overcast
Light Rain
48°F / 9°C 46°F / 8°C 94% 29.74 in
(1007 mb)
Calm 0.16 in
(4.06 mm)
5SM
03:48
Overcast
Rain
48°F / 9°C 46°F / 8°C 94% 29.74 in
(1007 mb)
Calm 0.15 in
(3.81 mm)
4SM
03:37
Overcast
Rain
48°F / 9°C 46°F / 8°C 94% 29.74 in
(1007 mb)
Calm 0.12 in
(3.05 mm)
3SM
03:06
Overcast
Light Rain
48°F / 9°C 46°F / 8°C 94% 29.74 in
(1007 mb)
ENE 3.5 mph
(ENE 6 kph)
0.04 in
(1.02 mm)
3SM
02:53
Overcast
Rain
48°F / 9°C 46°F / 8°C 94% 29.77 in
(1008 mb)
Calm 0.08 in
(2.03 mm)
2SM
02:48
Overcast
Rain
48°F / 9°C 46°F / 8°C 94% 29.77 in
(1008 mb)
Calm 0.07 in
(1.78 mm)
2 1/2SM
02:40
Overcast
Fog And Mist
48°F / 9°C 46°F / 8°C 94% 29.77 in
(1008 mb)
Calm 0.04 in
(1.02 mm)
5SM
02:29
Overcast
Fog And Mist
48°F / 9°C 46°F / 8°C 94% 29.77 in
(1008 mb)
E 4.6 mph
(E 7 kph)
0.04 in
(1.02 mm)
4SM
02:10
Overcast
Light Rain
48°F / 9°C 46°F / 8°C 94% 29.77 in
(1008 mb)
Calm 0.04 in
(1.02 mm)
4SM
01:53
Overcast
Light Rain
48°F / 9°C 46°F / 8°C 94% 29.77 in
(1008 mb)
E 3.5 mph
(E 6 kph)
0.02 in
(0.51 mm)
2 1/2SM
01:39
Overcast
Light Rain
48°F / 9°C 46°F / 8°C 94% 29.8 in
(1009 mb)
Calm 0.01 in
(0.25 mm)
7SM
01:26
Overcast
Light Rain
48°F / 9°C 46°F / 8°C 94% 29.8 in
(1009 mb)
ENE 3.5 mph
(ENE 6 kph)
0.01 in
(0.25 mm)
3SM
01:18
Overcast
Light Rain
48°F / 9°C 46°F / 8°C 94% 29.8 in
(1009 mb)
E 3.5 mph
(E 6 kph)
0.00 in
(0.00 mm)
2 1/2SM
00:53
Overcast
Light Rain
48°F / 9°C 46°F / 8°C 94% 29.8 in
(1009 mb)
E 3.5 mph
(E 6 kph)
0.05 in
(1.27 mm)
5SM
00:49
Overcast
Light Rain
48°F / 9°C 46°F / 8°C 94% 29.8 in
(1009 mb)
E 3.5 mph
(E 6 kph)
0.05 in
(1.27 mm)
4SM
Time Weather Temperature Dewpoint Humidity Pressure Winds Precip Visibility


Weather for websites

WeatherForYou.com, LLC is not responsible for any damages or problems caused by this service. Current weather conditions are obtained from the closest station including government and personal stations which may have varying degrees of accuracy. Weather forecasts are derived from the NOAA NDFD. Like all things, this site belongs to Jesus Christ... He just trusts me to maintain it. If you have any questions or comments email webmaster@weatherforyou.com

Copyright © 2015, WeatherForYou.com LLC. All rights reserved.